Location: Dugenta
(41.1333°N, 14.4500°E)
Time: 13:35:42
(UTC+00:00)

Meteor 1-11 Rocket - Pass Details

Date: 03 March 2021
Orbit: 831 x 916 km, 81.2° (Epoch: 20 April)

Event Time Altitude Azimuth Distance (km) Brightness Sun altitude
Rises 19:21:57 0° 201° (SSW) 3,472 6.9 -28.1°
Reaches altitude 10° 19:24:28 10° 206° (SSW) 2,524 6.2 -28.5°
Maximum altitude 19:30:04 54° 283° (WNW) 1,043 4.4 -29.5°
Drops below altitude 10° 19:35:35 10° 0° (N) 2,485 6.3 -30.5°
Sets 19:38:03 0° 5° (N) 3,414 7.0 -31.0°
